STARLINK-31151, 58742

Orbit data source: Space-Track

STARLINK-31151, 58742 is a payload satellite owned by SpaceX/Seattle (US) in LEO that was launched on Sun, 07 Jan 2024 UTC via an FALCON 9 launch vehicle from the Air Force Eastern Test Range (AFETR). Payload-class satellites include a variety of spacecraft equipped with specific instruments for various scientific and technological missions. These include communications satellites like Starlink; space stations such as the ISS; scientific satellites like the Hubble; Earth observation satellites from companies like Planet Labs, Umbra, and HawkEye 360; GPS; miniature CubeSats for education and research; and military/defense satellites.

Loading next visibility...
Identifier
58742, 2024-005Q
Orbit
LEO
Country
Flag of USUS
Related business
Manufacturer
SpaceX/Seattle
Mission
Operational Commercial Communications
Bus & Motor
STARLINK V2M, Unknown motor
Mass
730 kg wet, ~700 kg dry
Launch date (UTC)
2024-01-07 (2 years ago)
Launch vehicle
FALCON 9
Launch site
Air Force Eastern Test Range (AFETR)
Object type
Payload
Rocket body
Debris
Shape & HBR
Box + 2 Pan, 17.7 m
Radar Cross Section
33.884 m², Large (>1 m²)

Expand to show TLE details & history
Last TLE update: 3 days ago

TLE from 3 days ago
0 STARLINK-31151
1 58742U 24005Q   26170.61449425  .00001479  00000-0  63285-4 0  9997
2 58742  43.0041   3.9863 0001532 266.1930  93.8747 15.27575560136121
Epoch: 2026-06-19T14:44Z
TLE epoch observation values (Epoch: 2026-06-19T14:44:52.303Z)
Latitude
0.00003°
Longitude
-125.07254°
Altitude
482.909 km
Speed
7.626 km/s
True Right ascension
00h 15m 56s
True Declination
0° 00' 00"
Sunlit
Object was in daylight at epoch
Visualization orbit readout
Latitude
Unknown
Longitude
Unknown
Altitude
Unknown
Speed
Unknown
Apparent Right ascension
Unknown
Apparent Declination
Unknown
Sunlit
N/A
Visualization observer readout
Local Sidereal Time
21:27:26
Azimuth
Unknown
Elevation
Unknown
Doppler factor
Unknown
Orbital elements
Apogee altitude
486.058 km
Perigee altitude
483.955 km
Semi-major axis
6,863.144 km
Eccentricity
0.00015
Inclination
43.0041°
RAAN
3.9863°
Arg. of periapsis
266.193°
True anomaly
93.89222°
Mean anomaly
93.8747°
Eccentric anomaly
93.88346°
Mean motion
3.81732 °/min
Orbital period
94.31 mins
BSTAR
0.000063285
Loading maneuver chart data...
Computing Atmospheric mass density...
Loading historical data...
Loading historical data...
Loading historical data...
Loading historical data...
Loading historical data...
Loading historical data...
Loading historical data...

Documentation

Showing up to 5 results
|